Theta_e
300 300 300 300 300 301 301 301 302 301 302 303 304 303 303 304 304 304 303 305 311 311 311 313 312 313 317 317 321 321 321 325 327 326 325 326 325 326 327 326 326 325 331 336 337
299 299 300 300 300 301 301 302 302 302 302 303 303 304 304 304 305 306 304 308 312 314 313 312 312 314 314 316 318 319 318 323 325 325 325 326 326 327 326 326 326 325 325 329 333
298 299 299 300 300 301 301 301 302 302 303 303 303 303 304 305 315 316 314 313 311 307 307 307 311 312 313 314 318 320 321 322 323 325 326 326 326 326 326 326 327 325 326 326 325
298 298 299 299 300 300 301 301 302 303 303 303 303 303 304 311 317 313 308 311 307 310 312 311 311 312 312 313 315 314 317 321 322 323 324 325 325 326 326 326 327 327 327 328 326
306 304 300 299 299 300 301 301 301 303 305 305 303 304 307 318 319 311 311 313 313 313 313 313 313 312 310 312 313 313 314 316 317 318 322 325 325 325 326 326 327 327 327 328 329
307 307 306 299 299 300 301 301 301 303 306 305 304 305 308 317 311 311 313 313 313 312 312 312 312 312 311 311 310 311 312 312 313 314 316 316 317 322 325 326 326 326 326 327 328
305 306 307 300 301 302 301 301 301 303 308 306 305 306 308 308 311 311 311 311 311 312 311 312 312 312 312 310 312 312 310 310 312 314 315 317 317 317 319 320 322 325 326 326 327
301 305 305 303 305 304 303 301 301 303 309 305 305 308 313 313 311 311 310 310 310 311 312 311 311 312 311 312 311 310 309 309 312 311 314 316 316 317 318 318 319 320 324 326 325
300 305 304 304 304 304 303 302 303 309 308 311 310 317 317 312 311 310 309 310 310 310 311 311 311 312 311 309 307 308 308 309 310 311 311 312 311 313 315 316 317 318 320 322 326
301 306 304 304 305 306 312 313 315 315 311 314 313 315 315 312 311 311 310 310 311 311 312 312 311 309 306 307 309 309 309 310 311 312 312 311 311 312 313 314 314 315 315 316 323
301 307 305 307 304 312 313 313 311 315 311 312 318 317 316 310 310 310 311 310 311 311 310 310 308 308 308 308 310 311 311 311 312 312 312 311 311 312 312 313 312 313 313 314 315
300 306 305 311 309 312 313 312 312 312 311 311 311 312 313 311 310 311 310 310 310 309 308 308 309 310 311 311 311 311 311 310 311 312 312 310 311 312 311 311 312 313 313 314 314
300 306 304 308 312 313 314 313 312 312 310 311 313 312 312 311 310 311 311 310 310 309 309 308 309 311 311 311 311 311 311 312 313 313 311 311 311 311 312 312 312 312 313 313 313
301 307 304 308 312 313 312 312 312 313 311 315 310 311 310 310 310 311 311 310 310 309 309 308 309 309 311 311 312 313 314 313 313 313 311 310 311 310 310 310 310 311 311 311 311
302 308 305 313 314 312 311 311 312 314 312 313 311 311 310 310 311 312 311 311 309 309 309 308 309 308 310 314 314 313 313 312 312 312 310 310 308 310 309 310 310 310 311 313 313
306 306 306 311 312 312 310 313 314 316 314 312 311 311 310 310 310 311 311 310 310 308 308 308 309 312 313 313 312 312 312 311 310 308 309 309 308 310 308 309 309 311 314 315 316
311 304 305 308 310 309 311 314 313 317 314 312 311 311 310 310 312 311 310 309 308 309 309 309 309 313 313 312 309 309 310 311 311 310 311 310 310 310 310 311 315 316 315 315 315
314 311 312 313 311 308 309 311 317 313 312 312 312 311 311 311 312 312 310 309 310 309 307 308 308 310 312 311 310 309 309 311 315 315 313 311 311 310 314 315 315 314 314 313 313
311 315 315 314 311 312 313 312 315 312 311 312 312 312 311 312 311 310 309 311 311 309 310 309 311 309 310 309 309 309 309 309 312 310 310 309 310 310 314 315 314 314 313 312 312
315 316 315 313 311 314 310 315 310 310 310 312 312 312 311 310 310 309 310 312 312 310 308 309 309 309 310 309 309 310 309 309 308 313 315 312 312 311 316 315 314 313 312 312 313
314 316 314 311 312 314 310 311 311 312 312 312 312 311 311 310 310 310 311 311 312 312 310 309 309 310 309 309 309 310 310 311 310 310 311 315 312 314 315 314 313 313 314 314 314
313 311 312 312 312 310 310 311 312 313 311 311 311 311 311 310 310 311 311 312 312 311 311 310 309 309 310 309 309 311 311 312 308 310 312 313 312 312 313 312 313 313 313 312 314
312 313 313 313 308 307 310 310 312 312 311 310 310 311 310 310 310 311 312 312 312 312 312 311 308 311 308 308 308 311 310 310 310 309 313 313 311 313 312 313 314 313 313 313 314
310 307 311 311 310 309 308 310 312 312 312 310 310 310 310 309 309 311 311 311 310 310 312 312 308 309 309 310 308 312 312 311 310 314 312 312 312 313 314 314 313 315 314 313 315
307 306 307 304 305 305 308 310 311 311 310 309 309 310 309 309 309 309 309 309 310 310 312 309 310 311 311 312 313 313 313 313 312 311 312 313 315 314 313 313 314 313 316 314 316
305 306 306 305 307 308 308 309 309 309 308 308 309 309 308 308 308 308 309 309 309 309 309 308 310 313 313 313 312 312 312 313 313 313 312 312 311 312 311 312 312 314 316 317 317
303 304 306 305 305 304 305 306 308 307 308 307 306 306 307 307 309 310 310 309 308 309 308 308 309 312 313 312 312 314 314 315 314 313 312 313 311 310 311 312 312 312 313 313 315
Wind_Speed
16 16 16 16 16 15 14 14 12 11 10 11 12 13 13 15 15 14 16 9 4 7 8 6 8 10 9 9 12 4 2 5 7 7 5 23 4 21 25 20 23 16 11 9 18
18 17 17 17 16 16 15 14 13 12 12 12 13 14 15 17 16 9 5 6 5 5 8 8 9 6 8 12 9 7 6 8 5 5 8 20 19 18 21 27 16 10 12 14 9
18 17 17 17 17 17 16 14 13 12 12 13 15 15 15 15 5 4 4 1 2 3 3 10 12 4 6 11 8 5 6 6 11 16 20 22 27 23 15 12 25 11 15 19 15
19 18 18 18 17 17 16 15 13 12 13 14 14 14 12 5 2 2 7 10 7 3 3 5 6 3 3 4 6 6 11 14 18 24 22 16 28 22 19 21 34 33 23 21 19
22 22 22 19 18 17 16 15 13 12 14 15 13 11 5 3 3 3 4 7 6 4 7 6 6 6 3 4 7 6 9 17 23 26 24 28 26 26 34 30 34 39 32 22 23
24 23 23 21 20 19 17 15 13 11 14 13 10 6 2 3 3 6 7 5 3 2 5 5 5 7 2 1 1 7 8 12 10 16 15 10 16 23 35 32 31 33 40 30 24
24 24 25 23 20 18 16 14 11 10 11 10 6 6 5 6 3 2 4 4 3 3 5 4 7 6 9 7 10 12 6 7 5 3 4 14 14 19 23 23 24 29 36 36 27
23 23 24 22 20 16 13 10 8 8 9 4 6 6 3 6 3 2 3 4 5 6 7 6 6 4 2 6 9 6 4 4 4 8 5 3 22 17 22 27 30 30 28 41 37
22 22 24 22 18 13 11 9 6 4 4 5 1 4 4 4 3 0 4 3 6 4 8 10 10 5 2 2 4 3 4 4 6 7 6 4 16 7 16 17 19 24 30 33 41
22 21 20 19 14 10 11 9 5 2 1 6 3 4 1 3 5 3 1 2 6 9 10 6 5 2 2 3 3 5 5 2 2 5 2 9 15 8 14 18 14 21 23 26 30
23 19 15 13 9 10 15 7 10 1 15 10 5 6 14 3 3 1 6 5 6 3 2 3 4 6 10 8 10 6 5 4 3 6 4 10 15 14 10 14 15 22 27 32 36
24 17 10 6 6 8 10 13 11 9 8 15 16 18 16 9 3 5 7 2 4 4 7 7 3 5 6 5 3 6 6 6 6 6 6 7 21 18 7 7 17 22 27 30 34
23 16 10 4 6 7 9 10 9 12 3 10 6 9 8 9 4 6 5 2 0 3 3 2 8 7 6 3 6 5 5 7 9 11 7 5 18 16 16 13 15 21 25 31 33
22 13 7 3 4 11 14 13 13 16 3 4 4 3 10 6 4 10 10 5 0 4 5 5 5 4 6 3 4 3 6 8 10 8 4 5 16 12 10 12 12 20 27 30 39
18 12 2 5 5 14 17 15 11 10 4 6 4 7 5 6 3 7 12 9 6 6 1 8 5 7 3 3 2 5 6 4 8 10 3 5 4 10 8 17 17 17 23 29 30
14 8 2 2 4 10 14 11 5 4 3 2 3 3 2 8 11 10 14 11 9 5 4 9 6 3 5 3 2 1 3 5 4 2 4 4 6 18 5 12 6 9 23 22 32
10 6 4 3 6 10 10 5 4 4 8 8 6 7 6 4 5 7 5 3 4 1 3 3 1 2 2 3 6 6 4 4 5 3 5 5 8 13 9 9 3 6 18 30 34
6 8 5 5 10 14 11 4 7 5 7 6 10 12 3 5 4 4 4 4 10 4 1 1 5 4 2 1 5 4 5 4 4 3 7 12 7 6 2 6 10 12 16 26 36
5 4 4 6 14 9 3 5 2 5 5 6 8 5 6 12 8 8 7 4 3 5 2 3 3 9 6 4 2 3 4 6 4 6 7 5 7 7 3 6 6 14 18 22 34
4 4 4 9 8 8 5 1 2 3 1 4 4 4 4 6 5 6 4 3 2 3 1 3 5 4 3 8 3 2 3 3 3 3 5 4 6 8 6 9 12 17 20 28 35
4 3 9 6 7 5 2 4 2 9 6 2 3 2 4 3 3 4 3 7 4 4 5 2 2 5 4 2 4 4 1 3 2 4 4 4 5 4 6 4 10 14 21 28 31
5 3 6 6 5 2 2 6 8 12 4 2 2 2 1 3 4 3 3 2 6 4 2 1 2 4 8 15 9 6 6 4 3 4 4 4 10 5 4 6 8 15 18 30 34
9 5 2 6 2 3 6 6 2 6 3 4 3 3 3 3 2 2 3 5 4 2 2 2 1 4 7 4 4 3 3 5 3 2 8 5 7 2 5 6 8 11 21 31 36
7 4 5 3 3 2 5 5 5 11 6 6 3 5 3 3 3 4 3 4 10 4 6 8 5 7 6 8 5 14 17 14 9 5 9 12 16 6 10 12 8 11 16 30 30
8 3 4 4 4 7 2 4 9 5 5 4 3 2 2 3 4 5 3 6 10 13 5 7 6 6 12 16 16 19 21 18 16 16 9 15 7 9 8 11 12 14 13 19 28
5 5 6 9 12 6 4 3 4 7 5 6 4 6 2 4 7 12 6 3 6 5 5 2 5 2 15 14 16 18 17 15 16 16 5 7 11 5 11 18 17 15 13 19 23
7 4 3 6 5 3 1 5 8 11 6 8 6 5 5 6 15 18 18 17 13 8 5 5 3 4 16 5 12 10 4 1 2 6 5 7 4 5 7 12 14 22 21 21 26
Wind_Direction
351 348 346 343 340 340 338 338 334 327 321 322 321 318 317 312 306 289 268 246 236 229 245 225 226 224 210 251 224 210 104 230 231 234 276 298 321 308 323 315 325 4 16 22 193
347 344 343 341 340 337 335 334 332 327 320 316 315 316 321 320 313 286 258 237 233 267 271 248 218 200 219 221 218 184 185 219 234 277 289 290 303 322 335 321 317 358 350 16 106
341 338 336 334 333 332 331 329 328 321 316 314 310 316 322 321 334 43 100 93 215 263 280 217 216 250 230 241 220 222 236 256 268 278 283 285 292 301 298 300 301 317 316 319 332
342 336 331 327 325 324 323 324 324 322 321 317 311 317 322 324 112 55 60 79 101 116 38 147 198 208 216 226 230 257 256 245 254 258 261 270 282 289 279 270 295 296 310 308 301
346 341 335 326 320 316 314 313 318 321 322 317 313 320 328 287 241 45 68 99 83 36 353 329 270 244 210 236 299 251 278 273 267 263 260 266 269 274 279 281 289 294 295 303 301
342 340 338 330 321 314 308 304 307 314 322 323 323 327 299 285 96 42 78 65 36 4 306 339 359 337 246 281 160 303 301 289 289 288 294 272 272 279 275 280 280 286 292 293 295
338 338 339 335 325 315 306 300 298 308 321 318 327 326 272 231 139 329 320 341 315 253 5 323 341 335 351 335 327 310 310 319 299 282 268 302 276 257 277 289 289 272 274 278 275
337 337 340 339 331 322 315 308 294 299 321 317 331 314 254 147 250 252 282 265 350 251 267 301 293 304 289 302 330 338 345 320 342 358 282 177 269 275 279 278 281 284 279 274 272
343 340 342 343 339 337 339 329 304 299 317 334 357 313 277 187 122 123 286 331 327 286 268 281 233 208 251 106 0 300 251 264 314 251 253 205 275 315 314 307 292 289 281 273 271
346 344 346 347 355 10 9 6 344 42 29 329 225 312 216 170 176 297 178 267 306 300 304 256 201 119 15 89 236 243 260 276 265 337 1 295 288 288 301 312 320 318 318 318 288
346 344 349 360 11 25 37 31 19 44 324 260 262 277 295 87 25 208 147 344 352 320 295 317 107 225 242 214 237 259 247 281 254 265 292 284 280 284 295 308 315 311 308 306 304
346 341 344 13 19 15 31 35 24 332 308 287 259 257 266 275 247 297 192 148 7 310 335 10 294 276 257 289 321 325 313 302 270 283 294 288 288 289 285 275 298 301 307 311 310
346 341 337 323 359 14 357 8 353 327 329 298 221 229 243 221 221 248 215 137 95 338 340 181 258 302 328 349 6 1 354 343 321 324 313 295 287 297 296 289 292 298 299 306 303
347 345 342 344 59 40 13 13 335 319 54 270 174 191 179 194 255 233 210 165 171 246 271 258 261 330 309 343 40 333 340 327 324 331 276 274 282 280 300 303 301 297 292 289 295
349 352 349 72 36 18 352 331 313 315 59 187 164 188 197 194 294 184 187 174 192 226 156 255 268 294 292 166 129 229 319 292 284 276 280 257 258 277 309 293 292 293 298 308 311
354 11 148 9 42 343 340 344 311 38 63 104 91 341 17 239 256 181 184 222 252 214 218 240 273 134 186 248 220 325 334 319 300 189 230 197 210 276 251 261 289 314 329 345 335
20 54 81 43 345 351 357 349 47 64 342 4 2 336 317 281 301 164 199 228 225 22 297 329 352 173 111 336 345 58 44 344 331 349 238 241 269 264 295 325 50 334 328 329 330
59 73 38 10 2 353 349 54 65 18 24 17 337 313 338 12 13 358 354 305 17 83 99 190 335 23 62 244 240 235 175 166 261 291 303 304 257 256 90 68 324 312 313 329 330
69 41 337 13 3 11 4 52 26 6 30 346 336 20 358 4 6 16 11 42 34 48 62 7 257 320 295 3 79 262 222 218 242 270 265 242 283 292 319 309 296 290 314 323 328
37 356 352 1 2 346 63 291 122 19 12 29 43 20 335 337 20 28 321 80 48 83 87 353 294 244 310 325 297 51 290 13 15 289 276 272 283 262 297 295 328 320 329 321 326
17 12 14 3 359 21 112 247 334 347 95 148 237 259 287 304 350 342 276 315 74 6 77 76 142 284 352 259 285 347 340 65 129 166 220 300 248 227 271 312 296 308 320 323 321
21 31 4 8 26 21 346 310 315 313 100 53 2 282 333 326 301 262 252 322 54 57 35 157 199 277 261 293 265 170 200 171 133 260 243 257 276 313 185 256 296 316 328 335 322
352 322 328 329 58 331 307 298 278 331 246 184 200 236 247 254 313 265 294 285 82 49 220 179 304 317 332 357 358 211 222 212 220 142 226 240 265 357 268 268 243 288 341 339 330
6 3 334 33 25 65 353 289 320 309 352 34 355 347 351 297 234 268 256 280 289 270 245 169 195 191 220 250 243 283 278 274 245 235 250 242 277 288 303 290 255 275 331 348 325
17 14 15 309 325 327 254 271 299 322 3 34 307 8 74 316 310 264 304 317 310 291 223 157 228 220 246 259 272 274 278 272 259 255 241 275 234 255 261 268 280 273 315 331 316
25 6 339 297 297 312 311 339 315 348 317 314 314 284 209 213 219 275 257 223 230 292 199 204 257 254 286 271 263 283 282 268 259 264 279 269 274 227 288 304 307 296 310 306 300
17 5 307 284 326 349 225 343 308 319 297 24 330 322 310 306 311 298 277 257 239 217 223 188 213 272 270 330 307 284 262 142 330 291 265 267 244 269 278 289 306 305 299 298 298